START_TIME,STEP,MOV.,M35,t_acc.,PL05,t_acc.,PL06,t_acc.,PL07,t_acc.
1979-03-10 09:14:25.620 ,0,0,,0,,0,,0,,0
1979-03-10 09:14:30.420 ,0,0,0.,4.8,6.,4.8,0.,4.8,0.,4.8
1979-03-10 09:14:35.220 ,0,0,0.,4.8,0.,4.8,2.,4.8,0.,4.8
1979-03-10 09:14:40.020 ,0,0,0.,4.8,2.,4.8,1.,4.8,0.,4.8
1979-03-10 09:14:44.820 ,0,0,0.,4.8,3.,4.8,2.,4.8,1.,4.8
1979-03-10 09:14:45.420 ,5,0,0.,4.8,2.,4.8,1.,4.8,0.,4.8
1979-03-10 09:14:50.220 ,5,0,0.,4.8,4.,4.8,0.,4.8,0.,4.8
1979-03-10 09:14:55.020 ,5,0,0.,4.8,1.,4.8,1.,4.8,1.,4.8
1979-03-10 09:14:59.820 ,5,0,1.,4.8,5.,4.8,1.,4.8,0.,4.8
1979-03-10 09:15:04.620 ,5,0,0.,4.8,4.,4.8,1.,4.8,1.,4.8
1979-03-10 09:15:09.420 ,6,0,0.,4.8,2.,4.8,1.,4.8,0.,4.8
1979-03-10 09:15:14.220 ,6,0,0.,4.8,7.,4.8,1.,4.8,0.,4.8
1979-03-10 09:15:19.020 ,6,0,0.,4.8,1.,4.8,0.,4.8,0.,4.8
1979-03-10 09:15:23.820 ,6,0,0.,4.8,0.,4.8,0.,4.8,0.,4.8
1979-03-10 09:15:28.620 ,6,0,0.,4.8,4.,4.8,0.,4.8,0.,4.8
1979-03-10 09:15:33.420 ,7,0,0.,4.8,1.,4.8,0.,4.8,0.,4.8
1979-03-10 09:15:38.220 ,7,0,0.,4.8,1.,4.8,0.,4.8,0.,4.8
1979-03-10 09:15:43.020 ,7,0,0.,4.8,0.,4.8,1.,4.8,1.,4.8
1979-03-10 09:15:47.820 ,7,0,0.,4.8,0.,4.8,1.,4.8,0.,4.8
1979-03-10 09:15:52.620 ,7,0,0.,4.8,0.,4.8,0.,4.8,0.,4.8
1979-03-10 09:15:57.420 ,6,0,0.,4.8,1.,4.8,0.,4.8,0.,4.8
1979-03-10 09:16:02.220 ,6,0,0.,4.8,0.,4.8,0.,4.8,0.,4.8
1979-03-10 09:16:07.020 ,6,0,0.,4.8,2.,4.8,0.,4.8,0.,4.8
1979-03-10 09:16:11.820 ,6,0,0.,4.8,0.,4.8,0.,4.8,0.,4.8
1979-03-10 09:16:16.620 ,6,0,0.,4.8,0.,4.8,1.,4.8,0.,4.8
1979-03-10 09:16:21.420 ,0,0,0.,4.8,0.,4.8,2.,4.8,0.,4.8
1979-03-10 09:16:26.220 ,0,0,0.,4.8,1.,4.8,0.,4.8,0.,4.8
1979-03-10 09:16:31.020 ,0,0,0.,4.8,0.,4.8,1.,4.8,0.,4.8
1979-03-10 09:16:35.820 ,0,0,0.,4.8,0.,4.8,0.,4.8,1.,4.8
1979-03-10 09:16:40.620 ,0,0,0.,4.8,0.,4.8,1.,4.8,0.,4.8
1979-03-10 09:16:45.420 ,0,0,0.,4.8,2.,4.8,0.,4.8,0.,4.8
1979-03-10 09:16:50.220 ,0,0,0.,4.8,0.,4.8,0.,4.8,0.,4.8
1979-03-10 09:16:55.020 ,0,0,0.,4.8,1.,4.8,1.,4.8,0.,4.8
1979-03-10 09:16:59.820 ,0,0,0.,4.8,1.,4.8,0.,4.8,0.,4.8
1979-03-10 09:17:04.620 ,0,0,0.,4.8,0.,4.8,2.,4.8,0.,4.8
1979-03-10 09:17:09.420 ,5,0,0.,4.8,0.,4.8,0.,4.8,0.,4.8
1979-03-10 09:17:14.220 ,5,0,0.,4.8,1.,4.8,0.,4.8,1.,4.8
1979-03-10 09:17:19.020 ,5,0,0.,4.8,4.,4.8,1.,4.8,1.,4.8
1979-03-10 09:17:23.820 ,5,0,0.,4.8,3.,4.8,0.,4.8,0.,4.8
1979-03-10 09:17:28.620 ,5,0,2.,4.8,2.,4.8,2.,4.8,0.,4.8
1979-03-10 09:17:33.420 ,4,0,0.,4.8,3.,4.8,0.,4.8,2.,4.8
1979-03-10 09:17:38.220 ,4,0,0.,4.8,5.,4.8,1.,4.8,0.,4.8
1979-03-10 09:17:43.020 ,4,0,1.,4.8,4.,4.8,1.,4.8,0.,4.8
1979-03-10 09:17:47.820 ,4,0,0.,4.8,4.,4.8,1.,4.8,0.,4.8
1979-03-10 09:17:52.620 ,4,0,0.,4.8,3.,4.8,1.,4.8,0.,4.8
1979-03-10 09:17:57.420 ,3,0,0.,4.8,7.,4.8,3.,4.8,1.,4.8
1979-03-10 09:18:02.220 ,3,0,0.,4.8,2.,4.8,0.,4.8,0.,4.8
1979-03-10 09:18:07.020 ,3,0,0.,4.8,2.,4.8,1.,4.8,0.,4.8
1979-03-10 09:18:11.820 ,3,0,0.,4.8,0.,4.8,0.,4.8,0.,4.8
1979-03-10 09:18:16.620 ,3,0,0.,4.8,0.,4.8,1.,4.8,0.,4.8
1979-03-10 09:18:21.420 ,2,0,0.,4.8,5.,4.8,0.,4.8,0.,4.8
1979-03-10 09:18:26.220 ,2,0,0.,4.8,2.,4.8,0.,4.8,0.,4.8
1979-03-10 09:18:31.020 ,2,0,0.,4.8,0.,4.8,0.,4.8,0.,4.8
1979-03-10 09:18:35.820 ,2,0,0.,4.8,3.,4.8,1.,4.8,1.,4.8
1979-03-10 09:18:40.620 ,2,0,0.,4.8,1.,4.8,1.,4.8,2.,4.8
1979-03-10 09:18:45.420 ,1,0,0.,4.8,2.,4.8,0.,4.8,1.,4.8
1979-03-10 09:18:50.220 ,1,0,0.,4.8,0.,4.8,0.,4.8,0.,4.8
1979-03-10 09:18:55.020 ,1,0,0.,4.8,3.,4.8,0.,4.8,0.,4.8
1979-03-10 09:18:59.820 ,1,0,0.,4.8,1.,4.8,0.,4.8,0.,4.8
1979-03-10 09:19:04.620 ,1,0,0.,4.8,1.,4.8,1.,4.8,1.,4.8
1979-03-10 09:19:09.420 ,0,0,0.,4.8,0.,4.8,1.,4.8,0.,4.8
1979-03-10 09:19:14.220 ,0,0,0.,4.8,3.,4.8,0.,4.8,0.,4.8
1979-03-10 09:19:19.020 ,0,0,0.,4.8,2.,4.8,1.,4.8,0.,4.8
1979-03-10 09:19:23.820 ,0,0,0.,4.8,0.,4.8,0.,4.8,1.,4.8
1979-03-10 09:19:28.620 ,0,0,0.,4.8,0.,4.8,0.,4.8,0.,4.8
1979-03-10 09:19:33.420 ,0,0,0.,4.8,2.,4.8,0.,4.8,0.,4.8
1979-03-10 09:19:38.220 ,0,0,0.,4.8,0.,4.8,0.,4.8,0.,4.8
1979-03-10 09:19:43.020 ,0,0,0.,4.8,0.,4.8,0.,4.8,0.,4.8
1979-03-10 09:19:47.820 ,0,0,0.,4.8,1.,4.8,0.,4.8,0.,4.8
1979-03-10 09:19:52.620 ,0,0,0.,4.8,1.,4.8,0.,4.8,0.,4.8
1979-03-10 09:19:57.420 ,1,0,0.,4.8,2.,4.8,0.,4.8,0.,4.8
1979-03-10 09:20:02.220 ,1,0,0.,4.8,1.,4.8,0.,4.8,0.,4.8
1979-03-10 09:20:07.020 ,1,0,0.,4.8,4.,4.8,0.,4.8,0.,4.8
1979-03-10 09:20:11.820 ,1,0,0.,4.8,3.,4.8,0.,4.8,0.,4.8
1979-03-10 09:20:16.620 ,1,0,0.,4.8,0.,4.8,0.,4.8,0.,4.8
1979-03-10 09:20:21.420 ,2,0,0.,4.8,1.,4.8,0.,4.8,0.,4.8
1979-03-10 09:20:26.220 ,2,0,0.,4.8,1.,4.8,0.,4.8,0.,4.8
1979-03-10 09:20:31.020 ,2,0,0.,4.8,1.,4.8,2.,4.8,0.,4.8
1979-03-10 09:20:35.820 ,2,0,0.,4.8,5.,4.8,0.,4.8,0.,4.8
1979-03-10 09:20:40.620 ,2,0,0.,4.8,3.,4.8,0.,4.8,1.,4.8
1979-03-10 09:20:45.420 ,3,0,0.,4.8,2.,4.8,0.,4.8,0.,4.8
1979-03-10 09:20:50.220 ,3,0,0.,4.8,1.,4.8,3.,4.8,0.,4.8
1979-03-10 09:20:55.020 ,3,0,0.,4.8,7.,4.8,2.,4.8,0.,4.8
1979-03-10 09:20:59.820 ,3,0,0.,4.8,6.,4.8,1.,4.8,0.,4.8
1979-03-10 09:21:04.620 ,3,0,0.,4.8,8.,4.8,1.,4.8,2.,4.8
1979-03-10 09:21:09.420 ,4,0,0.,4.8,6.,4.8,2.,4.8,1.,4.8
1979-03-10 09:21:14.220 ,4,0,0.,4.8,8.,4.8,2.,4.8,0.,4.8
1979-03-10 09:21:19.020 ,4,0,0.,4.8,8.,4.8,2.,4.8,0.,4.8
1979-03-10 09:21:23.820 ,4,0,0.,4.8,8.,4.8,0.,4.8,0.,4.8
1979-03-10 09:21:28.620 ,4,0,0.,4.8,12.,4.8,1.,4.8,1.,4.8
1979-03-10 09:21:33.420 ,5,0,0.,4.8,6.,4.8,3.,4.8,2.,4.8
1979-03-10 09:21:38.220 ,5,0,0.,4.8,13.,4.8,3.,4.8,0.,4.8
1979-03-10 09:21:43.020 ,5,0,0.,4.8,7.,4.8,6.,4.8,1.,4.8
1979-03-10 09:21:47.820 ,5,0,1.,4.8,15.,4.8,0.,4.8,1.,4.8
1979-03-10 09:21:52.620 ,5,0,0.,4.8,17.,4.8,1.,4.8,0.,4.8
1979-03-10 09:21:57.420 ,0,0,0.,4.8,6.,4.8,0.,4.8,2.,4.8
1979-03-10 09:22:02.220 ,0,0,0.,4.8,5.,4.8,0.,4.8,2.,4.8
1979-03-10 09:22:07.020 ,0,0,0.,4.8,6.,4.8,1.,4.8,0.,4.8
1979-03-10 09:22:11.820 ,0,0,0.,4.8,3.,4.8,0.,4.8,0.,4.8
1979-03-10 09:22:16.620 ,0,0,0.,4.8,4.,4.8,2.,4.8,0.,4.8
1979-03-10 09:23:04.020 ,0,0,,0,,0,,0,,0
1979-03-10 09:23:08.820 ,0,0,,0,,0,,0,,0
1979-03-10 09:23:13.620 ,0,0,,0,,0,,0,,0
1979-03-10 09:23:18.420 ,0,0,,0,,0,,0,,0
1979-03-10 09:23:23.220 ,0,0,0.,4.8,3.,4.8,2.,4.8,0.,4.8
1979-03-10 09:23:09.420 ,6,0,0.,4.8,1.,4.8,0.,4.8,0.,4.8
1979-03-10 09:23:14.220 ,6,0,0.,4.8,0.,4.8,0.,4.8,1.,4.8
1979-03-10 09:23:19.020 ,6,0,0.,4.8,2.,4.8,0.,4.8,0.,4.8
1979-03-10 09:23:23.820 ,6,0,0.,4.8,2.,4.8,0.,4.8,0.,4.8
1979-03-10 09:23:28.620 ,6,0,1.,4.8,9.,4.8,1.,4.8,2.,4.8
1979-03-10 09:23:33.420 ,5,0,0.,4.8,6.,4.8,1.,4.8,1.,4.8
1979-03-10 09:23:38.220 ,5,0,0.,4.8,1.,4.8,0.,4.8,1.,4.8
1979-03-10 09:23:43.020 ,5,0,0.,4.8,17.,4.8,0.,4.8,1.,4.8
1979-03-10 09:23:47.820 ,5,0,0.,4.8,8.,4.8,2.,4.8,1.,4.8
1979-03-10 09:23:52.620 ,5,0,0.,4.8,4.,4.8,0.,4.8,0.,4.8
1979-03-10 09:23:57.420 ,4,0,0.,4.8,8.,4.8,1.,4.8,1.,4.8
1979-03-10 09:24:02.220 ,4,0,0.,4.8,9.,4.8,2.,4.8,2.,4.8
1979-03-10 09:24:07.020 ,4,0,0.,4.8,19.,4.8,4.,4.8,1.,4.8
1979-03-10 09:24:11.820 ,4,0,0.,4.8,7.,4.8,3.,4.8,1.,4.8
1979-03-10 09:24:16.620 ,4,0,0.,4.8,12.,4.8,1.,4.8,1.,4.8
1979-03-10 09:24:21.420 ,3,0,0.,4.8,17.,4.8,3.,4.8,2.,4.8
1979-03-10 09:24:26.220 ,3,0,0.,4.8,12.,4.8,0.,4.8,1.,4.8
1979-03-10 09:24:31.020 ,3,0,0.,4.8,7.,4.8,4.,4.8,1.,4.8
1979-03-10 09:24:35.820 ,3,0,0.,4.8,10.,4.8,2.,4.8,0.,4.8
1979-03-10 09:24:40.620 ,3,0,0.,4.8,10.,4.8,0.,4.8,2.,4.8
1979-03-10 09:24:45.420 ,2,0,0.,4.8,16.,4.8,2.,4.8,0.,4.8
1979-03-10 09:24:50.220 ,2,0,0.,4.8,10.,4.8,1.,4.8,1.,4.8
1979-03-10 09:24:55.020 ,2,0,2.,4.8,6.,4.8,3.,4.8,0.,4.8
1979-03-10 09:24:59.820 ,2,0,1.,4.8,5.,4.8,1.,4.8,0.,4.8
1979-03-10 09:25:04.620 ,2,0,0.,4.8,8.,4.8,1.,4.8,0.,4.8
1979-03-10 09:25:09.420 ,1,0,0.,4.8,14.,4.8,0.,4.8,0.,4.8
1979-03-10 09:25:14.220 ,1,0,0.,4.8,2.,4.8,2.,4.8,1.,4.8
1979-03-10 09:25:19.020 ,1,0,,0,,0,,0,,0
1979-03-10 09:25:23.820 ,1,0,0.,4.8,3.,4.8,0.,4.8,0.,4.8
1979-03-10 09:25:28.620 ,1,0,0.,4.8,10.,4.8,0.,4.8,0.,4.8
1979-03-10 09:25:33.420 ,0,0,0.,4.8,6.,4.8,0.,4.8,0.,4.8
1979-03-10 09:25:38.220 ,0,0,0.,4.8,9.,4.8,0.,4.8,0.,4.8
1979-03-10 09:25:43.020 ,0,0,0.,4.8,6.,4.8,1.,4.8,0.,4.8
1979-03-10 09:25:47.820 ,0,0,0.,4.8,0.,4.8,1.,4.8,2.,4.8
1979-03-10 09:25:52.620 ,0,0,0.,4.8,2.,4.8,0.,4.8,0.,4.8
1979-03-10 09:25:57.420 ,0,0,0.,4.8,2.,4.8,0.,4.8,0.,4.8
1979-03-10 09:26:02.220 ,0,0,0.,4.8,5.,4.8,0.,4.8,0.,4.8
1979-03-10 09:26:07.020 ,0,0,0.,4.8,6.,4.8,0.,4.8,0.,4.8
1979-03-10 09:26:11.820 ,0,0,0.,4.8,1.,4.8,0.,4.8,0.,4.8
1979-03-10 09:26:16.620 ,0,0,0.,4.8,1.,4.8,1.,4.8,0.,4.8
1979-03-10 09:26:21.420 ,1,0,0.,4.8,6.,4.8,0.,4.8,0.,4.8
1979-03-10 09:26:26.220 ,1,0,0.,4.8,6.,4.8,0.,4.8,1.,4.8
1979-03-10 09:26:31.020 ,1,0,0.,4.8,7.,4.8,2.,4.8,0.,4.8
1979-03-10 09:26:35.820 ,1,0,0.,4.8,8.,4.8,0.,4.8,0.,4.8
1979-03-10 09:26:40.620 ,1,0,0.,4.8,4.,4.8,1.,4.8,0.,4.8
1979-03-10 09:26:45.420 ,2,0,0.,4.8,6.,4.8,3.,4.8,0.,4.8
1979-03-10 09:26:50.220 ,2,0,0.,4.8,7.,4.8,1.,4.8,0.,4.8
1979-03-10 09:26:55.020 ,2,0,0.,4.8,5.,4.8,3.,4.8,0.,4.8
1979-03-10 09:26:59.820 ,2,0,0.,4.8,10.,4.8,2.,4.8,0.,4.8
1979-03-10 09:27:04.620 ,2,0,0.,4.8,9.,4.8,1.,4.8,1.,4.8
1979-03-10 09:27:09.420 ,3,0,0.,4.8,6.,4.8,0.,4.8,1.,4.8
1979-03-10 09:27:14.220 ,3,0,0.,4.8,10.,4.8,1.,4.8,0.,4.8
1979-03-10 09:27:19.020 ,3,0,0.,4.8,14.,4.8,1.,4.8,0.,4.8
1979-03-10 09:27:23.820 ,3,0,1.,4.8,16.,4.8,3.,4.8,2.,4.8
1979-03-10 09:27:28.620 ,3,0,0.,4.8,15.,4.8,4.,4.8,1.,4.8
1979-03-10 09:27:33.420 ,4,0,0.,4.8,19.,4.8,1.,4.8,0.,4.8
1979-03-10 09:27:38.220 ,4,0,0.,4.8,15.,4.8,3.,4.8,2.,4.8
1979-03-10 09:27:43.020 ,4,0,0.,4.8,17.,4.8,3.,4.8,0.,4.8
1979-03-10 09:27:47.820 ,4,0,0.,4.8,13.,4.8,4.,4.8,1.,4.8
1979-03-10 09:27:52.620 ,4,0,0.,4.8,17.,4.8,5.,4.8,1.,4.8
1979-03-10 09:27:57.420 ,5,0,0.,4.8,15.,4.8,1.,4.8,0.,4.8
1979-03-10 09:28:02.220 ,5,0,0.,4.8,22.,4.8,5.,4.8,3.,4.8
1979-03-10 09:28:07.020 ,5,0,0.,4.8,16.,4.8,5.,4.8,1.,4.8
1979-03-10 09:28:11.820 ,5,0,0.,4.8,13.,4.8,1.,4.8,3.,4.8
1979-03-10 09:28:16.620 ,5,0,0.,4.8,16.,4.8,3.,4.8,1.,4.8
1979-03-10 09:28:21.420 ,6,0,0.,4.8,23.,4.8,3.,4.8,1.,4.8
1979-03-10 09:28:26.220 ,6,0,0.,4.8,7.,4.8,3.,4.8,1.,4.8
1979-03-10 09:28:31.020 ,6,0,0.,4.8,7.,4.8,1.,4.8,0.,4.8
1979-03-10 09:28:35.820 ,6,0,0.,4.8,10.,4.8,2.,4.8,2.,4.8
1979-03-10 09:28:40.620 ,6,0,0.,4.8,10.,4.8,1.,4.8,1.,4.8
1979-03-10 09:28:45.420 ,7,0,0.,4.8,4.,4.8,3.,4.8,0.,4.8
1979-03-10 09:28:50.220 ,7,0,0.,4.8,6.,4.8,3.,4.8,0.,4.8
1979-03-10 09:28:55.020 ,7,0,0.,4.8,1.,4.8,0.,4.8,0.,4.8
1979-03-10 09:28:59.820 ,7,0,0.,4.8,1.,4.8,0.,4.8,0.,4.8
1979-03-10 09:29:04.620 ,7,0,0.,4.8,1.,4.8,0.,4.8,0.,4.8
1979-03-10 09:29:09.420 ,7,0,0.,4.8,1.,4.8,0.,4.8,0.,4.8
1979-03-10 09:29:14.220 ,7,0,0.,4.8,1.,4.8,0.,4.8,1.,4.8
1979-03-10 09:29:19.020 ,7,0,0.,4.8,0.,4.8,2.,4.8,0.,4.8
1979-03-10 09:29:23.820 ,7,0,0.,4.8,1.,4.8,0.,4.8,0.,4.8
1979-03-10 09:29:28.620 ,7,0,0.,4.8,1.,4.8,0.,4.8,0.,4.8
1979-03-10 09:29:33.420 ,6,0,0.,4.8,1.,4.8,0.,4.8,0.,4.8
1979-03-10 09:29:38.220 ,6,0,0.,4.8,1.,4.8,0.,4.8,0.,4.8
1979-03-10 09:29:43.020 ,6,0,0.,4.8,4.,4.8,2.,4.8,0.,4.8
1979-03-10 09:29:47.820 ,6,0,0.,4.8,7.,4.8,0.,4.8,2.,4.8
1979-03-10 09:29:52.620 ,6,0,1.,4.8,3.,4.8,0.,4.8,1.,4.8
1979-03-10 09:29:57.420 ,5,0,0.,4.8,7.,4.8,3.,4.8,1.,4.8
1979-03-10 09:30:02.220 ,5,0,0.,4.8,4.,4.8,1.,4.8,1.,4.8
1979-03-10 09:30:07.020 ,5,0,0.,4.8,15.,4.8,4.,4.8,1.,4.8
1979-03-10 09:30:11.820 ,5,0,0.,4.8,19.,4.8,2.,4.8,0.,4.8
1979-03-10 09:30:16.620 ,5,0,0.,4.8,8.,4.8,3.,4.8,1.,4.8
1979-03-10 09:30:21.420 ,4,0,0.,4.8,17.,4.8,3.,4.8,3.,4.8
1979-03-10 09:30:26.220 ,4,0,0.,4.8,13.,4.8,0.,4.8,3.,4.8
1979-03-10 09:30:31.020 ,4,0,0.,4.8,17.,4.8,3.,4.8,1.,4.8
1979-03-10 09:30:35.820 ,4,0,0.,4.8,15.,4.8,5.,4.8,1.,4.8
1979-03-10 09:30:40.620 ,4,0,0.,4.8,20.,4.8,1.,4.8,0.,4.8
1979-03-10 09:30:45.420 ,3,0,0.,4.8,32.,4.8,1.,4.8,1.,4.8
1979-03-10 09:30:50.220 ,3,0,0.,4.8,20.,4.8,6.,4.8,0.,4.8
1979-03-10 09:30:55.020 ,3,0,0.,4.8,8.,4.8,1.,4.8,3.,4.8
1979-03-10 09:30:59.820 ,3,0,0.,4.8,15.,4.8,3.,4.8,0.,4.8
1979-03-10 09:31:04.620 ,3,0,1.,4.8,25.,4.8,2.,4.8,2.,4.8
1979-03-10 09:31:09.420 ,2,0,0.,4.8,21.,4.8,4.,4.8,0.,4.8
1979-03-10 09:31:14.220 ,2,0,0.,4.8,24.,4.8,1.,4.8,1.,4.8
1979-03-10 09:31:19.020 ,2,0,0.,4.8,5.,4.8,1.,4.8,1.,4.8
1979-03-10 09:31:23.820 ,2,0,0.,4.8,16.,4.8,1.,4.8,0.,4.8
1979-03-10 09:31:28.620 ,2,0,0.,4.8,6.,4.8,1.,4.8,2.,4.8
1979-03-10 09:31:33.420 ,1,0,0.,4.8,9.,4.8,2.,4.8,3.,4.8
1979-03-10 09:31:38.220 ,1,0,0.,4.8,22.,4.8,3.,4.8,3.,4.8
1979-03-10 09:31:43.020 ,1,0,0.,4.8,8.,4.8,1.,4.8,0.,4.8
1979-03-10 09:31:47.820 ,1,0,0.,4.8,5.,4.8,1.,4.8,0.,4.8
1979-03-10 09:31:52.620 ,1,0,0.,4.8,9.,4.8,1.,4.8,3.,4.8
1979-03-10 09:31:57.420 ,0,0,0.,4.8,9.,4.8,2.,4.8,1.,4.8
1979-03-10 09:32:02.220 ,0,0,0.,4.8,12.,4.8,2.,4.8,0.,4.8
1979-03-10 09:32:07.020 ,0,0,0.,4.8,4.,4.8,0.,4.8,0.,4.8
1979-03-10 09:32:11.820 ,0,0,0.,4.8,5.,4.8,0.,4.8,1.,4.8
1979-03-10 09:32:16.620 ,0,0,0.,4.8,4.,4.8,2.,4.8,0.,4.8
1979-03-10 09:32:21.420 ,0,0,0.,4.8,3.,4.8,1.,4.8,0.,4.8
1979-03-10 09:32:26.220 ,0,0,0.,4.8,2.,4.8,1.,4.8,1.,4.8
1979-03-10 09:32:31.020 ,0,0,0.,4.8,3.,4.8,2.,4.8,1.,4.8
1979-03-10 09:32:35.820 ,0,0,0.,4.8,6.,4.8,0.,4.8,0.,4.8
1979-03-10 09:32:40.620 ,0,0,0.,4.8,8.,4.8,1.,4.8,1.,4.8
1979-03-10 09:32:45.420 ,1,0,0.,4.8,11.,4.8,0.,4.8,1.,4.8
1979-03-10 09:32:50.220 ,1,0,0.,4.8,3.,4.8,0.,4.8,0.,4.8
1979-03-10 09:32:55.020 ,1,0,0.,4.8,12.,4.8,0.,4.8,0.,4.8
1979-03-10 09:32:59.820 ,1,0,0.,4.8,15.,4.8,0.,4.8,0.,4.8
1979-03-10 09:33:04.620 ,1,0,0.,4.8,14.,4.8,0.,4.8,2.,4.8
1979-03-10 09:33:09.420 ,2,0,0.,4.8,18.,4.8,1.,4.8,1.,4.8
1979-03-10 09:33:14.220 ,2,0,0.,4.8,17.,4.8,1.,4.8,3.,4.8
1979-03-10 09:33:19.020 ,2,0,0.,4.8,23.,4.8,2.,4.8,0.,4.8
1979-03-10 09:33:23.820 ,2,0,0.,4.8,13.,4.8,6.,4.8,2.,4.8
1979-03-10 09:33:28.620 ,2,0,0.,4.8,21.,4.8,2.,4.8,1.,4.8
1979-03-10 09:33:33.420 ,3,0,0.,4.8,21.,4.8,4.,4.8,1.,4.8
1979-03-10 09:33:38.220 ,3,0,0.,4.8,16.,4.8,5.,4.8,4.,4.8
1979-03-10 09:33:43.020 ,3,0,0.,4.8,21.,4.8,2.,4.8,2.,4.8
1979-03-10 09:33:47.820 ,3,0,0.,4.8,24.,4.8,6.,4.8,3.,4.8
1979-03-10 09:33:52.620 ,3,0,0.,4.8,21.,4.8,4.,4.8,1.,4.8
1979-03-10 09:33:57.420 ,4,0,0.,4.8,22.,4.8,4.,4.8,3.,4.8
1979-03-10 09:34:02.220 ,4,0,0.,4.8,29.,4.8,1.,4.8,2.,4.8
1979-03-10 09:34:07.020 ,4,0,0.,4.8,32.,4.8,4.,4.8,3.,4.8
1979-03-10 09:34:11.820 ,4,0,0.,4.8,48.,4.8,8.,4.8,1.,4.8
1979-03-10 09:34:16.620 ,4,0,0.,4.8,34.,4.8,5.,4.8,1.,4.8
1979-03-10 09:34:21.420 ,5,0,0.,4.8,32.,4.8,4.,4.8,2.,4.8
1979-03-10 09:34:26.220 ,5,0,0.,4.8,40.,4.8,5.,4.8,2.,4.8
1979-03-10 09:34:31.020 ,5,0,0.,4.8,29.,4.8,7.,4.8,1.,4.8
1979-03-10 09:34:35.820 ,5,0,0.,4.8,30.,4.8,4.,4.8,1.,4.8
1979-03-10 09:34:40.620 ,5,0,1.,4.8,28.,4.8,4.,4.8,0.,4.8
1979-03-10 09:34:45.420 ,6,0,0.,4.8,35.,4.8,6.,4.8,1.,4.8
1979-03-10 09:34:50.220 ,6,0,0.,4.8,31.,4.8,6.,4.8,1.,4.8
1979-03-10 09:34:55.020 ,6,0,0.,4.8,12.,4.8,1.,4.8,1.,4.8
1979-03-10 09:34:59.820 ,6,0,0.,4.8,13.,4.8,3.,4.8,2.,4.8
1979-03-10 09:35:04.620 ,6,0,0.,4.8,9.,4.8,3.,4.8,2.,4.8
1979-03-10 09:35:09.420 ,7,0,0.,4.8,14.,4.8,4.,4.8,0.,4.8
1979-03-10 09:35:14.220 ,7,0,0.,4.8,11.,4.8,2.,4.8,1.,4.8
1979-03-10 09:35:19.020 ,7,0,0.,4.8,0.,4.8,0.,4.8,0.,4.8
1979-03-10 09:35:23.820 ,7,0,0.,4.8,2.,4.8,0.,4.8,1.,4.8
1979-03-10 09:35:28.620 ,7,0,0.,4.8,3.,4.8,2.,4.8,0.,4.8
1979-03-10 09:35:33.420 ,7,0,0.,4.8,0.,4.8,0.,4.8,0.,4.8
1979-03-10 09:35:38.220 ,7,0,0.,4.8,0.,4.8,1.,4.8,1.,4.8
1979-03-10 09:35:43.020 ,7,0,0.,4.8,1.,4.8,2.,4.8,0.,4.8
1979-03-10 09:35:47.820 ,7,0,0.,4.8,1.,4.8,0.,4.8,0.,4.8
1979-03-10 09:35:52.620 ,7,0,0.,4.8,2.,4.8,1.,4.8,0.,4.8
1979-03-10 09:35:57.420 ,6,0,0.,4.8,3.,4.8,0.,4.8,1.,4.8
1979-03-10 09:36:02.220 ,6,0,0.,4.8,2.,4.8,1.,4.8,0.,4.8
1979-03-10 09:36:07.020 ,6,0,0.,4.8,16.,4.8,3.,4.8,2.,4.8
1979-03-10 09:36:11.820 ,6,0,0.,4.8,26.,4.8,6.,4.8,0.,4.8
1979-03-10 09:36:16.620 ,6,0,0.,4.8,19.,4.8,3.,4.8,1.,4.8
1979-03-10 09:36:21.420 ,5,0,0.,4.8,19.,4.8,5.,4.8,2.,4.8
1979-03-10 09:36:26.220 ,5,0,0.,4.8,25.,4.8,4.,4.8,0.,4.8
1979-03-10 09:36:31.020 ,5,0,0.,4.8,68.,4.8,4.,4.8,0.,4.8
1979-03-10 09:36:35.820 ,5,0,0.,4.8,61.,4.8,5.,4.8,4.,4.8
1979-03-10 09:36:40.620 ,5,0,1.,4.8,53.,4.8,8.,4.8,3.,4.8
1979-03-10 09:36:45.420 ,4,0,1.,4.8,53.,4.8,7.,4.8,1.,4.8
1979-03-10 09:36:50.220 ,4,0,0.,4.8,60.,4.8,7.,4.8,2.,4.8
1979-03-10 09:36:55.020 ,4,0,0.,4.8,84.,4.8,7.,4.8,0.,4.8
1979-03-10 09:36:59.820 ,4,0,0.,4.8,88.,4.8,11.,4.8,3.,4.8
1979-03-10 09:37:04.620 ,4,0,0.,4.8,68.,4.8,12.,4.8,4.,4.8
1979-03-10 09:37:09.420 ,3,0,0.,4.8,96.,4.8,8.,4.8,2.,4.8
1979-03-10 09:37:14.220 ,3,0,0.,4.8,86.,4.8,5.,4.8,1.,4.8
1979-03-10 09:37:19.020 ,3,0,0.,4.8,86.,4.8,7.,4.8,3.,4.8
1979-03-10 09:37:23.820 ,3,0,1.,4.8,56.,4.8,8.,4.8,3.,4.8
1979-03-10 09:37:28.620 ,3,0,0.,4.8,76.,4.8,7.,4.8,5.,4.8
1979-03-10 09:37:33.420 ,2,0,0.,4.8,76.,4.8,12.,4.8,1.,4.8
1979-03-10 09:37:38.220 ,2,0,0.,4.8,64.,4.8,6.,4.8,3.,4.8
1979-03-10 09:37:43.020 ,2,0,0.,4.8,36.,4.8,4.,4.8,4.,4.8
1979-03-10 09:37:47.820 ,2,0,0.,4.8,40.,4.8,4.,4.8,1.,4.8
1979-03-10 09:37:52.620 ,2,0,1.,4.8,49.,4.8,5.,4.8,1.,4.8
1979-03-10 09:37:57.420 ,1,0,0.,4.8,51.,4.8,5.,4.8,2.,4.8
1979-03-10 09:38:02.220 ,1,0,0.,4.8,50.,4.8,6.,4.8,3.,4.8
1979-03-10 09:38:07.020 ,1,0,0.,4.8,28.,4.8,4.,4.8,3.,4.8
1979-03-10 09:38:11.820 ,1,0,0.,4.8,25.,4.8,2.,4.8,1.,4.8
1979-03-10 09:38:16.620 ,1,0,0.,4.8,32.,4.8,2.,4.8,1.,4.8
1979-03-10 09:38:21.420 ,0,0,0.,4.8,28.,4.8,3.,4.8,0.,4.8
1979-03-10 09:38:26.220 ,0,0,0.,4.8,24.,4.8,2.,4.8,2.,4.8
1979-03-10 09:38:31.020 ,0,0,0.,4.8,16.,4.8,0.,4.8,1.,4.8
1979-03-10 09:38:35.820 ,0,0,0.,4.8,12.,4.8,2.,4.8,0.,4.8
1979-03-10 09:38:40.620 ,0,0,0.,4.8,7.,4.8,3.,4.8,0.,4.8
1979-03-10 09:38:45.420 ,0,0,0.,4.8,11.,4.8,1.,4.8,1.,4.8
1979-03-10 09:38:50.220 ,0,0,0.,4.8,16.,4.8,4.,4.8,2.,4.8
1979-03-10 09:38:55.020 ,0,0,0.,4.8,9.,4.8,0.,4.8,1.,4.8
1979-03-10 09:38:59.820 ,0,0,0.,4.8,8.,4.8,3.,4.8,1.,4.8
1979-03-10 09:39:04.620 ,0,0,0.,4.8,12.,4.8,4.,4.8,0.,4.8
1979-03-10 09:39:09.420 ,1,0,0.,4.8,21.,4.8,2.,4.8,0.,4.8
1979-03-10 09:39:14.220 ,1,0,0.,4.8,10.,4.8,3.,4.8,0.,4.8
1979-03-10 09:39:19.020 ,1,0,0.,4.8,28.,4.8,1.,4.8,3.,4.8
1979-03-10 09:39:23.820 ,1,0,0.,4.8,34.,4.8,2.,4.8,0.,4.8
1979-03-10 09:39:28.620 ,1,0,0.,4.8,30.,4.8,2.,4.8,1.,4.8
1979-03-10 09:39:33.420 ,2,0,0.,4.8,28.,4.8,5.,4.8,1.,4.8
1979-03-10 09:39:38.220 ,2,0,0.,4.8,30.,4.8,6.,4.8,2.,4.8
1979-03-10 09:39:43.020 ,2,0,0.,4.8,50.,4.8,3.,4.8,2.,4.8
1979-03-10 09:39:47.820 ,2,0,0.,4.8,53.,4.8,6.,4.8,2.,4.8
1979-03-10 09:39:52.620 ,2,0,0.,4.8,64.,4.8,5.,4.8,1.,4.8
1979-03-10 09:39:57.420 ,3,0,0.,4.8,55.,4.8,13.,4.8,3.,4.8
1979-03-10 09:40:02.220 ,3,0,1.,4.8,56.,4.8,3.,4.8,1.,4.8
1979-03-10 09:40:07.020 ,3,0,0.,4.8,82.,4.8,11.,4.8,2.,4.8
1979-03-10 09:40:11.820 ,3,0,0.,4.8,88.,4.8,9.,4.8,3.,4.8
1979-03-10 09:40:16.620 ,3,0,0.,4.8,72.,4.8,9.,4.8,4.,4.8
1979-03-10 09:40:21.420 ,4,0,0.,4.8,96.,4.8,2.,4.8,3.,4.8
1979-03-10 09:40:26.220 ,4,0,0.,4.8,86.,4.8,5.,4.8,3.,4.8
1979-03-10 09:40:31.020 ,4,0,0.,4.8,108.,4.8,13.,4.8,1.,4.8
1979-03-10 09:40:35.820 ,4,0,0.,4.8,82.,4.8,7.,4.8,3.,4.8
1979-03-10 09:40:40.620 ,4,0,0.,4.8,92.,4.8,6.,4.8,3.,4.8
1979-03-10 09:40:45.420 ,5,0,0.,4.8,86.,4.8,6.,4.8,3.,4.8
1979-03-10 09:40:50.220 ,5,0,0.,4.8,86.,4.8,5.,4.8,5.,4.8
1979-03-10 09:40:55.020 ,5,0,0.,4.8,70.,4.8,9.,4.8,3.,4.8
1979-03-10 09:40:59.820 ,5,0,0.,4.8,62.,4.8,9.,4.8,2.,4.8
1979-03-10 09:41:04.620 ,5,0,0.,4.8,60.,4.8,4.,4.8,1.,4.8
1979-03-10 09:41:09.420 ,6,0,0.,4.8,48.,4.8,7.,4.8,2.,4.8
1979-03-10 09:41:14.220 ,6,0,0.,4.8,51.,4.8,3.,4.8,0.,4.8
1979-03-10 09:41:19.020 ,6,0,0.,4.8,28.,4.8,4.,4.8,3.,4.8
1979-03-10 09:41:23.820 ,6,0,0.,4.8,34.,4.8,3.,4.8,2.,4.8
1979-03-10 09:41:28.620 ,6,0,0.,4.8,31.,4.8,4.,4.8,3.,4.8
1979-03-10 09:41:33.420 ,7,0,0.,4.8,40.,4.8,2.,4.8,2.,4.8
1979-03-10 09:41:38.220 ,7,0,0.,4.8,26.,4.8,1.,4.8,2.,4.8
1979-03-10 09:41:43.020 ,7,0,0.,4.8,3.,4.8,0.,4.8,0.,4.8
1979-03-10 09:41:47.820 ,7,0,0.,4.8,0.,4.8,0.,4.8,0.,4.8
1979-03-10 09:41:52.620 ,7,0,0.,4.8,1.,4.8,0.,4.8,0.,4.8
1979-03-10 09:41:57.420 ,7,0,0.,4.8,1.,4.8,1.,4.8,0.,4.8
1979-03-10 09:42:02.220 ,7,0,0.,4.8,0.,4.8,0.,4.8,0.,4.8
1979-03-10 09:42:07.020 ,7,0,0.,4.8,1.,4.8,0.,4.8,1.,4.8
1979-03-10 09:42:11.820 ,7,0,0.,4.8,2.,4.8,0.,4.8,0.,4.8
1979-03-10 09:42:16.620 ,7,0,0.,4.8,0.,4.8,0.,4.8,0.,4.8
1979-03-10 09:42:21.420 ,6,0,0.,4.8,1.,4.8,1.,4.8,0.,4.8
1979-03-10 09:42:26.220 ,6,0,0.,4.8,0.,4.8,1.,4.8,0.,4.8
1979-03-10 09:42:31.020 ,6,0,0.,4.8,24.,4.8,2.,4.8,0.,4.8
1979-03-10 09:42:35.820 ,6,0,1.,4.8,24.,4.8,6.,4.8,0.,4.8
1979-03-10 09:42:40.620 ,6,0,0.,4.8,27.,4.8,2.,4.8,0.,4.8
1979-03-10 09:42:45.420 ,5,0,0.,4.8,27.,4.8,3.,4.8,0.,4.8
1979-03-10 09:42:50.220 ,5,0,0.,4.8,29.,4.8,4.,4.8,1.,4.8
1979-03-10 09:42:55.020 ,5,0,0.,4.8,45.,4.8,8.,4.8,1.,4.8
1979-03-10 09:42:59.820 ,5,0,0.,4.8,51.,4.8,6.,4.8,0.,4.8
1979-03-10 09:43:04.620 ,5,0,0.,4.8,37.,4.8,10.,4.8,1.,4.8
1979-03-10 09:43:09.420 ,4,0,0.,4.8,53.,4.8,2.,4.8,4.,4.8
1979-03-10 09:43:14.220 ,4,0,0.,4.8,50.,4.8,5.,4.8,3.,4.8
1979-03-10 09:43:19.020 ,4,0,0.,4.8,66.,4.8,6.,4.8,3.,4.8
1979-03-10 09:43:23.820 ,4,0,1.,4.8,80.,4.8,6.,4.8,1.,4.8
1979-03-10 09:43:28.620 ,4,0,0.,4.8,70.,4.8,9.,4.8,4.,4.8
1979-03-10 09:43:33.420 ,3,0,0.,4.8,74.,4.8,4.,4.8,3.,4.8
1979-03-10 09:43:38.220 ,3,0,0.,4.8,64.,4.8,10.,4.8,2.,4.8
1979-03-10 09:43:43.020 ,3,0,0.,4.8,76.,4.8,5.,4.8,1.,4.8
1979-03-10 09:43:47.820 ,3,0,0.,4.8,70.,4.8,7.,4.8,0.,4.8
1979-03-10 09:43:52.620 ,3,0,0.,4.8,70.,4.8,9.,4.8,3.,4.8
1979-03-10 09:43:57.420 ,2,0,0.,4.8,72.,4.8,5.,4.8,2.,4.8
1979-03-10 09:44:02.220 ,2,0,0.,4.8,72.,4.8,12.,4.8,1.,4.8
1979-03-10 09:44:07.020 ,2,0,0.,4.8,36.,4.8,5.,4.8,3.,4.8
1979-03-10 09:44:11.820 ,2,0,0.,4.8,37.,4.8,7.,4.8,0.,4.8
1979-03-10 09:44:16.620 ,2,0,0.,4.8,46.,4.8,7.,4.8,5.,4.8
1979-03-10 09:44:21.420 ,1,0,0.,4.8,36.,4.8,3.,4.8,4.,4.8
1979-03-10 09:44:26.220 ,1,0,0.,4.8,41.,4.8,2.,4.8,4.,4.8
1979-03-10 09:44:31.020 ,1,0,0.,4.8,25.,4.8,4.,4.8,1.,4.8
1979-03-10 09:44:35.820 ,1,0,1.,4.8,19.,4.8,1.,4.8,4.,4.8
1979-03-10 09:44:40.620 ,1,0,0.,4.8,21.,4.8,3.,4.8,2.,4.8
1979-03-10 09:44:45.420 ,0,0,0.,4.8,14.,4.8,0.,4.8,1.,4.8
1979-03-10 09:44:50.220 ,0,0,0.,4.8,22.,4.8,2.,4.8,0.,4.8
1979-03-10 09:44:55.020 ,0,0,0.,4.8,8.,4.8,1.,4.8,0.,4.8
1979-03-10 09:44:59.820 ,0,0,0.,4.8,8.,4.8,2.,4.8,1.,4.8
1979-03-10 09:45:04.620 ,0,0,0.,4.8,7.,4.8,1.,4.8,1.,4.8
1979-03-10 09:45:09.420 ,0,0,0.,4.8,14.,4.8,0.,4.8,0.,4.8
1979-03-10 09:45:14.220 ,0,0,0.,4.8,8.,4.8,1.,4.8,2.,4.8
1979-03-10 09:45:19.020 ,0,0,0.,4.8,10.,4.8,1.,4.8,2.,4.8
1979-03-10 09:45:23.820 ,0,0,0.,4.8,11.,4.8,1.,4.8,0.,4.8
1979-03-10 09:45:28.620 ,0,0,0.,4.8,10.,4.8,0.,4.8,0.,4.8
1979-03-10 09:45:33.420 ,1,0,0.,4.8,13.,4.8,3.,4.8,0.,4.8
1979-03-10 09:45:38.220 ,1,0,0.,4.8,15.,4.8,2.,4.8,0.,4.8
1979-03-10 09:45:43.020 ,1,0,0.,4.8,20.,4.8,2.,4.8,0.,4.8
1979-03-10 09:45:47.820 ,1,0,0.,4.8,16.,4.8,2.,4.8,3.,4.8
1979-03-10 09:45:52.620 ,1,0,0.,4.8,21.,4.8,4.,4.8,1.,4.8
1979-03-10 09:45:57.420 ,2,0,0.,4.8,15.,4.8,7.,4.8,3.,4.8
1979-03-10 09:46:02.220 ,2,0,0.,4.8,24.,4.8,2.,4.8,4.,4.8
1979-03-10 09:46:07.020 ,2,0,0.,4.8,39.,4.8,7.,4.8,1.,4.8
1979-03-10 09:46:11.820 ,2,0,0.,4.8,38.,4.8,4.,4.8,0.,4.8
1979-03-10 09:46:16.620 ,2,0,0.,4.8,33.,4.8,7.,4.8,0.,4.8
1979-03-10 09:46:21.420 ,3,0,0.,4.8,38.,4.8,2.,4.8,2.,4.8
1979-03-10 09:46:26.220 ,3,0,0.,4.8,42.,4.8,4.,4.8,2.,4.8
1979-03-10 09:46:31.020 ,3,0,0.,4.8,56.,4.8,5.,4.8,1.,4.8
1979-03-10 09:46:35.820 ,3,0,0.,4.8,62.,4.8,3.,4.8,3.,4.8
1979-03-10 09:46:40.620 ,3,0,0.,4.8,68.,4.8,6.,4.8,5.,4.8
1979-03-10 09:46:45.420 ,4,0,0.,4.8,68.,4.8,5.,4.8,5.,4.8
1979-03-10 09:46:50.220 ,4,0,0.,4.8,53.,4.8,7.,4.8,2.,4.8
1979-03-10 09:46:55.020 ,4,0,0.,4.8,74.,4.8,8.,4.8,0.,4.8
1979-03-10 09:46:59.820 ,4,0,0.,4.8,63.,4.8,3.,4.8,3.,4.8
1979-03-10 09:47:04.620 ,4,0,0.,4.8,68.,4.8,5.,4.8,1.,4.8
1979-03-10 09:47:09.420 ,5,0,0.,4.8,64.,4.8,6.,4.8,3.,4.8
1979-03-10 09:47:14.220 ,5,0,0.,4.8,68.,4.8,7.,4.8,3.,4.8
1979-03-10 09:47:19.020 ,5,0,0.,4.8,35.,4.8,10.,4.8,2.,4.8
1979-03-10 09:47:23.820 ,5,0,0.,4.8,39.,4.8,5.,4.8,4.,4.8
1979-03-10 09:47:28.620 ,5,0,0.,4.8,49.,4.8,5.,4.8,2.,4.8